Location: Wald
(31.7579°N, 86.6655°W)
Time: 12:04:48
(UTC+00:00)

Cosmos 1844 Rocket - Pass Details

Date: 14 July 2020
Orbit: 826 x 843 km, 71.0° (Epoch: 08 August)

Event Time Altitude Azimuth Distance (km) Brightness Sun altitude
Rises 01:39:11 0° 339° (NNW) 3,366 6.8 -9.2°
Reaches altitude 10° 01:41:37 10° 339° (NNW) 2,430 6.0 -9.7°
Maximum altitude 01:47:11 85° 252° (WSW) 834 2.7 -10.7°
Drops below altitude 10° 01:52:45 10° 164° (SSE) 2,423 4.6 -11.6°
Enters shadow 01:53:15 - 164° (SSE) 2,616 4.8 -11.7°
